Hourly Weather Kozolupy

Today, 20 October, Tuesday

Time Temperature Precipitation Wind Pressure Humidity
00:00 +3°C° 0 mm 3 mps 755 mmHg 89%
01:00 +3°C° 0 mm 3 mps 755 mmHg 89%
02:00 +3°C° 0 mm 3 mps 755 mmHg 90%
03:00 +2°C° 0 mm 3 mps 755 mmHg 91%
04:00 +2°C° 0 mm 3 mps 755 mmHg 92%
05:00 +3°C° 0 mm 3 mps 755 mmHg 91%
06:00 +4°C° 0 mm 2 mps 756 mmHg 91%
07:00 +4°C° 0 mm 2 mps 756 mmHg 90%
08:00 +5°C° 0 mm 2 mps 756 mmHg 85%
09:00 +6°C° 0 mm 2 mps 756 mmHg 80%
10:00 +8°C° 0 mm 2 mps 756 mmHg 75%
11:00 +8°C° 0 mm 3 mps 756 mmHg 70%
12:00 +9°C° 0 mm 3 mps 756 mmHg 66%
13:00 +10°C° 0 mm 3 mps 756 mmHg 62%
14:00 +10°C° 0 mm 3 mps 755 mmHg 65%
15:00 +9°C° 0 mm 3 mps 754 mmHg 68%
16:00 +8°C° 0 mm 4 mps 753 mmHg 72%
17:00 +8°C° 0 mm 4 mps 753 mmHg 74%
18:00 +7°C° 0 mm 4 mps 753 mmHg 76%
19:00 +7°C° 0 mm 4 mps 753 mmHg 78%
20:00 +7°C° 0 mm 5 mps 752 mmHg 80%
21:00 +7°C° 0 mm 5 mps 752 mmHg 81%
22:00 +7°C° 0 mm 5 mps 751 mmHg 82%
23:00 +7°C° 0 mm 5 mps 751 mmHg 81%

Tomorrow, 21 October, Wednesday

Time Temperature Precipitation Wind Pressure Humidity
00:00 +7°C° 0 mm 5 mps 751 mmHg 81%
01:00 +7°C° 0 mm 4 mps 751 mmHg 81%
02:00 +7°C° 0 mm 5 mps 750 mmHg 78%
03:00 +7°C° 0 mm 5 mps 750 mmHg 76%
04:00 +7°C° 0 mm 5 mps 749 mmHg 74%
05:00 +8°C° 0 mm 5 mps 749 mmHg 73%
06:00 +8°C° 0 mm 5 mps 749 mmHg 71%
07:00 +8°C° 0 mm 5 mps 749 mmHg 70%
08:00 +8°C° 0 mm 5 mps 749 mmHg 70%
09:00 +9°C° 0 mm 5 mps 749 mmHg 71%
10:00 +9°C° 0 mm 5 mps 749 mmHg 71%
11:00 +11°C° 0 mm 4 mps 749 mmHg 70%
12:00 +11°C° 0 mm 4 mps 749 mmHg 69%
13:00 +11°C° 0 mm 3 mps 749 mmHg 69%
14:00 +11°C° 0 mm 3 mps 749 mmHg 69%
15:00 +11°C° 0 mm 3 mps 749 mmHg 69%
16:00 +11°C° 0 mm 3 mps 748 mmHg 69%
17:00 +11°C° 0 mm 3 mps 748 mmHg 68%
18:00 +11°C° 0 mm 3 mps 749 mmHg 67%
19:00 +11°C° 0 mm 4 mps 749 mmHg 67%
20:00 +11°C° 0 mm 4 mps 749 mmHg 69%
21:00 +10°C° 0 mm 4 mps 748 mmHg 71%
22:00 +10°C° 0 mm 4 mps 748 mmHg 73%
23:00 +10°C° 0 mm 4 mps 748 mmHg 75%

Day after tomorrow, 22 October, Thursday

Time Temperature Precipitation Wind Pressure Humidity
00:00 +9°C° 0 mm 5 mps 748 mmHg 77%
01:00 +9°C° 0 mm 5 mps 749 mmHg 79%
02:00 +9°C° 0 mm 5 mps 748 mmHg 79%
03:00 +9°C° 0 mm 5 mps 748 mmHg 80%
04:00 +9°C° 0 mm 5 mps 748 mmHg 81%
05:00 +9°C° 0 mm 5 mps 748 mmHg 80%
06:00 +9°C° 0 mm 5 mps 748 mmHg 80%
07:00 +9°C° 0 mm 5 mps 748 mmHg 79%
08:00 +12°C° 0 mm 5 mps 748 mmHg 75%
09:00 +13°C° 0 mm 6 mps 749 mmHg 70%
10:00 +15°C° 0 mm 6 mps 749 mmHg 65%
11:00 +16°C° 0 mm 6 mps 749 mmHg 64%
12:00 +17°C° 0 mm 5 mps 749 mmHg 63%
13:00 +17°C° 0 mm 5 mps 749 mmHg 62%
14:00 +16°C° 0 mm 5 mps 749 mmHg 66%
15:00 +17°C° 0 mm 4 mps 749 mmHg 70%
16:00 +15°C° 0 mm 4 mps 749 mmHg 74%
17:00 +14°C° 0 mm 4 mps 749 mmHg 76%
18:00 +14°C° 0 mm 4 mps 749 mmHg 78%
19:00 +13°C° 0 mm 4 mps 749 mmHg 80%
20:00 +13°C° 0 mm 4 mps 749 mmHg 81%
21:00 +13°C° 0 mm 4 mps 749 mmHg 82%
22:00 +13°C° 0 mm 3 mps 749 mmHg 82%
23:00 +13°C° 0 mm 3 mps 749 mmHg 83%

23 October, Friday

Time Temperature Precipitation Wind Pressure Humidity
00:00 +12°C° 0 mm 3 mps 749 mmHg 83%
01:00 +12°C° 0 mm 3 mps 749 mmHg 83%
02:00 +12°C° 0 mm 3 mps 748 mmHg 82%
03:00 +13°C° 0 mm 4 mps 748 mmHg 81%
04:00 +13°C° 0 mm 4 mps 748 mmHg 80%
05:00 +13°C° 0 mm 4 mps 748 mmHg 80%
06:00 +13°C° 0 mm 4 mps 747 mmHg 80%
07:00 +12°C° 0 mm 5 mps 747 mmHg 80%
08:00 +13°C° 0 mm 5 mps 747 mmHg 78%
09:00 +14°C° 0 mm 5 mps 747 mmHg 75%
10:00 +14°C° 0 mm 4 mps 747 mmHg 73%
11:00 +15°C° 0 mm 5 mps 747 mmHg 72%
12:00 +15°C° 0 mm 5 mps 746 mmHg 72%
13:00 +16°C° 0 mm 5 mps 746 mmHg 71%
14:00 +15°C° 0 mm 4 mps 746 mmHg 74%
15:00 +15°C° 0 mm 4 mps 746 mmHg 78%
16:00 +16°C° 0 mm 3 mps 746 mmHg 81%
17:00 +14°C° 0 mm 3 mps 747 mmHg 84%
18:00 +13°C° 0 mm 3 mps 747 mmHg 87%
19:00 +12°C° 0 mm 3 mps 747 mmHg 90%
20:00 +13°C° 0 mm 2 mps 747 mmHg 91%
21:00 +13°C° 0 mm 2 mps 747 mmHg 91%
22:00 +12°C° 0 mm 2 mps 747 mmHg 91%
23:00 +12°C° 0 mm 2 mps 747 mmHg 92%

24 October, Saturday

Time Temperature Precipitation Wind Pressure Humidity
00:00 +12°C° 0 mm 2 mps 747 mmHg 93%
01:00 +12°C° 0 mm 2 mps 746 mmHg 93%
02:00 +12°C° 0 mm 2 mps 746 mmHg 93%
03:00 +11°C° 0 mm 3 mps 746 mmHg 93%
04:00 +12°C° 0 mm 3 mps 746 mmHg 93%
05:00 +12°C° 1.2 mm 3 mps 745 mmHg 94%
06:00 +12°C° 1.2 mm 4 mps 745 mmHg 95%
07:00 +12°C° 1.2 mm 5 mps 744 mmHg 95%
08:00 +12°C° 2.6 mm 5 mps 744 mmHg 95%
09:00 +12°C° 2.6 mm 5 mps 744 mmHg 95%
10:00 +12°C° 2.6 mm 5 mps 743 mmHg 95%
11:00 +11°C° 1.1 mm 6 mps 743 mmHg 93%
12:00 +11°C° 1.1 mm 6 mps 743 mmHg 91%
13:00 +10°C° 1.1 mm 7 mps 743 mmHg 89%
14:00 +10°C° 1.1 mm 7 mps 744 mmHg 86%
15:00 +10°C° 1.1 mm 7 mps 744 mmHg 83%
16:00 +10°C° 1.1 mm 7 mps 745 mmHg 80%
17:00 +9°C° 0 mm 7 mps 745 mmHg 80%
18:00 +8°C° 0 mm 7 mps 746 mmHg 79%
19:00 +8°C° 0 mm 7 mps 747 mmHg 79%
20:00 +6°C° 0 mm 7 mps 747 mmHg 79%
21:00 +6°C° 0 mm 7 mps 748 mmHg 79%
22:00 +5°C° 0 mm 7 mps 749 mmHg 79%
23:00 +5°C° 0 mm 6 mps 749 mmHg 81%

25 October, Sunday

Time Temperature Precipitation Wind Pressure Humidity
00:00 +5°C° 0 mm 6 mps 750 mmHg 83%
01:00 +5°C° 0 mm 5 mps 750 mmHg 84%
02:00 +5°C° 0 mm 5 mps 750 mmHg 86%
03:00 +5°C° 0 mm 4 mps 751 mmHg 88%
04:00 +4°C° 0 mm 4 mps 751 mmHg 90%
05:00 +4°C° 0 mm 4 mps 751 mmHg 91%
06:00 +4°C° 0 mm 3 mps 751 mmHg 92%
07:00 +4°C° 0 mm 3 mps 751 mmHg 94%
08:00 +5°C° 0 mm 3 mps 752 mmHg 88%
09:00 +8°C° 0 mm 3 mps 752 mmHg 83%
10:00 +9°C° 0 mm 3 mps 752 mmHg 77%
11:00 +10°C° 0 mm 3 mps 752 mmHg 72%
12:00 +12°C° 0 mm 2 mps 752 mmHg 68%
13:00 +12°C° 0 mm 2 mps 752 mmHg 63%
14:00 +10°C° 0 mm 2 mps 752 mmHg 66%
15:00 +11°C° 0 mm 1 mps 751 mmHg 69%
16:00 +10°C° 0 mm 1 mps 751 mmHg 72%
17:00 +9°C° 0 mm 1 mps 751 mmHg 75%
18:00 +8°C° 0 mm 2 mps 751 mmHg 77%
19:00 +7°C° 0 mm 2 mps 752 mmHg 79%
20:00 +7°C° 0 mm 3 mps 752 mmHg 80%
21:00 +7°C° 0 mm 3 mps 752 mmHg 82%
22:00 +5°C° 0 mm 3 mps 752 mmHg 83%
23:00 +5°C° 0 mm 3 mps 752 mmHg 84%

26 October, Monday

Time Temperature Precipitation Wind Pressure Humidity
00:00 +5°C° 0 mm 3 mps 751 mmHg 84%
01:00 +5°C° 0 mm 3 mps 751 mmHg 85%
02:00 +5°C° 0 mm 4 mps 751 mmHg 86%
03:00 +4°C° 0 mm 4 mps 751 mmHg 86%
04:00 +4°C° 0 mm 4 mps 750 mmHg 87%
05:00 +4°C° 0 mm 4 mps 750 mmHg 87%
06:00 +3°C° 0 mm 5 mps 750 mmHg 87%
07:00 +3°C° 0 mm 5 mps 750 mmHg 87%
08:00 +6°C° 0 mm 5 mps 750 mmHg 80%
09:00 +7°C° 0 mm 6 mps 750 mmHg 73%
10:00 +9°C° 0 mm 6 mps 750 mmHg 66%
11:00 +9°C° 0 mm 6 mps 750 mmHg 64%
12:00 +10°C° 0 mm 6 mps 749 mmHg 63%
13:00 +11°C° 0 mm 6 mps 749 mmHg 61%
14:00 +10°C° 0 mm 6 mps 749 mmHg 65%
15:00 +9°C° 0 mm 5 mps 748 mmHg 69%
16:00 +10°C° 0 mm 4 mps 748 mmHg 72%
17:00 +8°C° 0 mm 5 mps 748 mmHg 74%
18:00 +8°C° 0 mm 5 mps 749 mmHg 76%
19:00 +7°C° 0 mm 5 mps 749 mmHg 78%
20:00 +7°C° 0 mm 5 mps 749 mmHg 78%
21:00 +7°C° 0 mm 5 mps 749 mmHg 78%
22:00 +7°C° 0 mm 5 mps 749 mmHg 78%
23:00 +7°C° 0 mm 5 mps 749 mmHg 76%
Show more